Location: Monfort
(47.1967°N, 0.2115°W)
Time: 04:37:51
(UTC+00:00)

ATLAS 2AS CENTAUR R/B - Pass Details

Date: 24 October 2020
Orbit: 939 x 1273 km, 63.7° (Epoch: 23 November)

Event Time Altitude Azimuth Distance (km) Brightness Sun altitude
Rises 18:14:09 0° 309° (NW) 4,212 6.6 -13.8°
Reaches altitude 10° 18:17:36 10° 322° (NW) 3,212 5.7 -14.4°
Maximum altitude 18:23:56 27° 17° (NNE) 2,140 4.1 -15.4°
Enters shadow 18:27:53 17° 59° (ENE) 2,550 4.2 -16.1°
